Köýtendag

Turkmenistan     37˚30′47″N   66˚00′49″E
temp.,
°C
wind,
m/s
gust,
m/s
humid.,
%
clouds,
%
prec.,
mm/h
press.,
hPa
HPBL,
m
2 december, wed
wed223:00+8˚nnw23340 0.0 102622
02:00+8˚ssw013633 0.0 102522
05:00+9˚nnw113562 0.0 102522
08:00+9˚ese013592 0.0 102622
11:00+14˚w332692 0.0 1025400
14:00+16˚wnw332685 0.0 1023642
17:00+15˚wnw343188 0.0 102350
20:00+12˚wnw563467 0.0 1024105
3 december, thu
thu323:00+10˚w464033 0.0 102588
02:00+8˚w35455 0.0 102560
05:00+7˚wnw345029 0.0 102650
08:00+7˚w2351100 0.0 102648
11:00+11˚nw013999 0.0 1026329
14:00+14˚ene1135100 0.0 1024602
17:00+14˚wnw3438100 0.0 1024289
20:00+13˚nw81044100 0.3 1026414
4 december, fri
fri423:00+10˚wnw6858100 1.8 1026417
02:00+9˚wnw71044100 0.4 1027428
05:00+7˚wnw8104095 0.4 1027405
08:00+6˚wnw81136100 0.0 1029379
11:00+8˚nw793595 0.0 1030469
14:00+11˚wnw782684 0.0 1029812
17:00+9˚wnw682443 0.0 1030442
20:00+7˚wnw46261 0.0 1031117
5 december, sat
sat523:00+5˚nw22290 0.0 103122
02:00+4˚wnw11310 0.0 103022
05:00+3˚nnw013713 0.0 102922
08:00+3˚nw01447 0.0 102922
11:00+9˚nw33338 0.0 1028416
14:00+11˚nnw44330 0.0 1025911
17:00+10˚nw46338 0.0 1025136
20:00+8˚nw463419 0.0 102695
6 december, sun
sun623:00+6˚nw234011 0.0 102625
02:00+5˚nw12450 0.0 102722
05:00+4˚se015210 0.0 102622
08:00+4˚se125066 0.0 102722
11:00+10˚se354064 0.0 1026584
14:00+13˚nne563662 0.0 1023862
17:00+11˚nnw574076 0.0 1021172
20:00+10˚nnw4445100 0.0 102180